English version Home page |
Updated on November 15, 2021 |
|
軌道要素Epoch 2021 July 5.0 TT = JDT 2459400.5 T 2020 Nov. 26.26705 TT Rudenko q 1.3886888 (2000.0) P Q n 0.16565083 Peri. 167.95352 +0.67811228 -0.70333627 a 3.2835249 Node 238.90963 +0.65194811 +0.70960406 e 0.5770738 Incl. 14.42059 +0.33930428 +0.04219203 P 5.95 From 1180 observations 2014 July 27-2021 Feb. 6, mean residual 0".5. Nongravitational parameters A1 = +0.17, A2 = +0.0350.
|
星図
|
光度変化m1 = 17.0 + 5 logΔ + 10.0 log r [ ,-44] ( 〜2020年10月13日) m1 = -6.5 + 5 logΔ + 150 log r [-44, 0] (2020年10月13日〜2020年11月26日) m1 = 10.0 + 5 logΔ + 35 log r [ 0, ] (2020年11月26日〜 )
|
軌道要素はM.P.E.C. 2021-U109に掲載されたものです。
|